Date String (YYYY-MM-DD hh:mm:ss) UTC,Instrument flags,absolute air pressure of the measurement (hPa),sample flow rate (lpm),inlet stack bypass flow (lpm),air temperature of the measurement (°C),ambient temperature measured by the external sensor (°C),aerosol sample conditioner tube jacket temperature (°C),OPC LED temperature (°C),internal box temperature (°C),relative humidity of the measurement (%),span deviation,mass concentration of particles derived from Lorenz-Mie calculation of OPC scattering (μg/m³),mass concentration of particles derived from Lorenz-Mie calculation of OPC scattering (μg/m³),mass concentration of particles derived from Lorenz-Mie calculation of OPC scattering (μg/m³)
DateTimeUTC,F1_M11,P_M11,Q1_M11,Q2_M11,T1_M11,T2_M11,T3_M11,T4_M11,T5_M11,U1_M11,ZSPAN_M11,X2_M11,X0_M11,X1_M11
2023-12-16 18:00:00,SystemResetWarning,0831.8,5.00,000.00,022.0,021.5,000.0,030.0,023.5,14.5,0000.0,0003.46,0007.14,0003.11
2023-12-16 18:01:00,SystemResetWarning,0831.8,5.00,000.00,022.0,021.5,000.0,030.0,023.5,14.4,0000.0,0003.54,0007.13,0003.14
2023-12-16 18:02:00,SystemResetWarning,0831.8,5.00,000.00,022.1,021.5,000.0,030.1,023.5,14.3,0000.0,0003.58,0007.20,0003.17
2023-12-16 18:03:00,SystemResetWarning,0831.8,5.00,000.00,022.1,021.6,000.0,030.1,023.6,14.6,0000.0,0003.63,0007.33,0003.20
2023-12-16 18:04:00,SystemResetWarning,0831.8,5.00,000.00,022.1,021.6,000.0,030.1,023.6,14.1,0000.0,0003.64,0007.24,0003.21
2023-12-16 18:05:00,SystemResetWarning,0831.8,5.00,000.00,022.1,021.6,000.0,030.1,023.6,13.7,0000.0,0003.65,0007.34,0003.21
2023-12-16 18:06:00,SystemResetWarning,0831.8,5.00,000.00,022.2,021.7,000.0,030.2,023.6,13.7,0000.0,0003.67,0007.49,0003.22
2023-12-16 18:07:00,SystemResetWarning,0831.8,4.99,000.00,022.2,021.7,000.0,030.2,023.6,13.4,0000.0,0003.70,0007.99,0003.25
2023-12-16 18:08:00,SystemResetWarning,0831.8,5.00,000.00,022.2,021.7,000.0,030.2,023.7,13.2,0000.0,0003.69,0008.12,0003.26
2023-12-16 18:09:00,SystemResetWarning,0831.9,5.00,000.00,022.2,021.7,000.0,030.2,023.7,13.4,0000.0,0003.66,0008.08,0003.24
2023-12-16 18:10:00,SystemResetWarning,0832.0,5.00,000.00,022.3,021.8,000.0,030.2,023.7,13.6,0000.0,0003.62,0007.96,0003.20
2023-12-16 18:11:00,SystemResetWarning,0832.3,5.01,000.00,022.3,021.8,000.0,030.3,023.8,13.5,0000.0,0003.59,0007.75,0003.18
2023-12-16 18:12:00,SystemResetWarning,0832.0,5.00,000.00,022.3,021.8,000.0,030.3,023.8,13.6,0000.0,0003.55,0007.51,0003.16
2023-12-16 18:13:00,SystemResetWarning,0831.7,5.01,000.00,022.4,021.8,000.0,030.3,023.8,13.6,0000.0,0003.52,0007.40,0003.14
2023-12-16 18:14:00,SystemResetWarning,0831.7,5.00,000.00,022.4,021.9,000.0,030.3,023.9,13.4,0000.0,0003.48,0007.37,0003.13
2023-12-16 18:15:00,SystemResetWarning,0831.7,5.01,000.00,022.4,021.9,000.0,030.4,023.9,13.5,0000.0,0003.49,0007.34,0003.12
2023-12-16 18:16:00,SystemResetWarning,0831.7,5.00,000.00,022.4,021.9,000.0,030.4,023.9,13.5,0000.0,0003.50,0007.29,0003.12
2023-12-16 18:17:00,SystemResetWarning,0831.7,4.99,000.00,022.5,021.9,000.0,030.4,023.9,13.5,0000.0,0003.54,0007.24,0003.13
2023-12-16 18:18:00,SystemResetWarning,0831.6,5.01,000.00,022.5,022.0,000.0,030.4,024.0,13.2,0000.0,0003.54,0006.46,0003.12
2023-12-16 18:19:00,SystemResetWarning,0831.6,5.02,000.00,022.5,022.0,000.0,030.5,024.0,13.4,0000.0,0003.52,0005.99,0003.12
2023-12-16 18:20:00,SystemResetWarning,0831.6,5.00,000.00,022.6,022.0,000.0,030.5,024.0,13.9,0000.0,0003.50,0005.75,0003.12
2023-12-16 18:21:00,SystemResetWarning,0831.6,4.98,000.00,022.6,022.0,000.0,030.5,024.0,14.0,0000.0,0003.51,0005.88,0003.13
2023-12-16 18:22:00,SystemResetWarning,0831.6,5.00,000.00,022.6,022.1,000.0,030.5,024.1,14.4,0000.0,0003.51,0006.14,0003.13
2023-12-16 18:23:00,SystemResetWarning,0831.6,5.01,000.00,022.6,022.1,000.0,030.6,024.1,14.3,0000.0,0003.53,0006.75,0003.15
2023-12-16 18:24:00,SystemResetWarning,0831.5,5.00,000.00,022.6,022.1,000.0,030.6,024.1,14.4,0000.0,0003.57,0007.24,0003.19
2023-12-16 18:25:00,SystemResetWarning,0831.5,4.99,000.00,022.7,022.2,000.0,030.6,024.1,14.2,0000.0,0003.66,0007.42,0003.24
2023-12-16 18:26:00,SystemResetWarning,0831.5,4.99,000.00,022.7,022.2,000.0,030.6,024.1,14.1,0000.0,0003.76,0007.60,0003.31
2023-12-16 18:27:00,SystemResetWarning,0831.5,5.01,000.00,022.7,022.2,000.0,030.7,024.2,14.3,0000.0,0003.86,0007.76,0003.40
2023-12-16 18:28:00,SystemResetWarning,0831.5,5.01,000.00,022.7,022.2,000.0,030.7,024.2,14.3,0000.0,0003.92,0007.92,0003.46
2023-12-16 18:29:00,SystemResetWarning,0831.5,4.98,000.00,022.8,022.3,000.0,030.7,024.2,14.2,0000.0,0004.01,0008.05,0003.54
2023-12-16 18:30:00,SystemResetWarning,0831.5,5.00,000.00,022.8,022.3,000.0,030.7,024.3,14.1,0000.0,0004.11,0008.19,0003.63
2023-12-16 18:31:00,SystemResetWarning,0831.5,5.01,000.00,022.8,022.3,000.0,030.8,024.3,14.0,0000.0,0004.20,0008.34,0003.71
2023-12-16 18:32:00,SystemResetWarning,0831.5,5.01,000.00,022.8,022.3,000.0,030.8,024.3,14.0,0000.0,0004.25,0008.41,0003.76
2023-12-16 18:33:00,SystemResetWarning,0831.5,4.99,000.00,022.9,022.3,000.0,030.8,024.3,13.9,0000.0,0004.31,0008.49,0003.81
2023-12-16 18:34:00,SystemResetWarning,0831.4,4.99,000.00,022.9,022.4,000.0,030.8,024.4,13.6,0000.0,0004.37,0008.40,0003.85
2023-12-16 18:35:00,SystemResetWarning,0831.4,4.99,000.00,022.9,022.4,000.0,030.9,024.4,13.6,0000.0,0004.37,0008.20,0003.86
2023-12-16 18:36:00,SystemResetWarning,0831.4,5.01,000.00,022.9,022.4,000.0,030.9,024.4,13.5,0000.0,0004.35,0008.16,0003.86
2023-12-16 18:37:00,SystemResetWarning,0831.4,5.01,000.00,023.0,022.4,000.0,030.9,024.5,13.3,0000.0,0004.30,0008.07,0003.85
2023-12-16 18:38:00,SystemResetWarning,0831.3,5.00,000.00,023.0,022.5,000.0,030.9,024.5,13.1,0000.0,0004.23,0007.99,0003.83
2023-12-16 18:39:00,SystemResetWarning,0831.4,5.00,000.00,023.0,022.5,000.0,031.0,024.5,13.1,0000.0,0004.21,0007.95,0003.83
2023-12-16 18:40:00,SystemResetWarning,0831.4,5.00,000.00,023.0,022.5,000.0,031.0,024.5,13.2,0000.0,0004.20,0007.95,0003.81
2023-12-16 18:41:00,SystemResetWarning,0831.3,4.98,000.00,023.1,022.6,000.0,031.0,024.6,13.0,0000.0,0004.17,0007.92,0003.79
2023-12-16 18:42:00,SystemResetWarning,0831.3,5.01,000.00,023.1,022.6,000.0,031.1,024.6,13.1,0000.0,0004.14,0007.93,0003.77
2023-12-16 18:43:00,SystemResetWarning,0831.4,5.01,000.00,023.1,022.6,000.0,031.1,024.6,13.2,0000.0,0004.15,0007.91,0003.77
2023-12-16 18:44:00,SystemResetWarning,0831.3,5.00,000.00,023.1,022.6,000.0,031.1,024.6,12.9,0000.0,0004.17,0007.74,0003.79
2023-12-16 18:45:00,SystemResetWarning,0831.3,4.99,000.00,023.2,022.7,000.0,031.1,024.6,12.6,0000.0,0004.16,0007.58,0003.79
2023-12-16 18:46:00,SystemResetWarning,0831.3,5.00,000.00,023.2,022.7,000.0,031.1,024.6,12.6,0000.0,0004.17,0007.47,0003.78
2023-12-16 18:47:00,SystemResetWarning,0831.3,5.00,000.00,023.2,022.7,000.0,031.2,024.7,12.8,0000.0,0004.14,0007.31,0003.77
2023-12-16 18:48:00,SystemResetWarning,0831.4,5.01,000.00,023.2,022.7,000.0,031.2,024.7,12.7,0000.0,0004.13,0007.31,0003.75
2023-12-16 18:49:00,SystemResetWarning,0831.3,5.00,000.00,023.3,022.7,000.0,031.2,024.7,12.7,0000.0,0004.12,0007.28,0003.71
2023-12-16 18:50:00,SystemResetWarning,0831.3,5.00,000.00,023.3,022.8,000.0,031.2,024.7,12.7,0000.0,0004.09,0007.11,0003.67
2023-12-16 18:51:00,SystemResetWarning,0831.3,4.99,000.00,023.3,022.8,000.0,031.3,024.8,12.9,0000.0,0004.06,0006.90,0003.66
2023-12-16 18:52:00,SystemResetWarning,0831.2,5.00,000.00,023.3,022.8,000.0,031.3,024.8,12.9,0000.0,0004.08,0007.10,0003.66
2023-12-16 18:53:00,SystemResetWarning,0831.3,4.99,000.00,023.4,022.8,000.0,031.3,024.8,13.0,0000.0,0004.08,0007.03,0003.66
2023-12-16 18:54:00,SystemResetWarning,0831.2,4.99,000.00,023.4,022.9,000.0,031.3,024.9,13.0,0000.0,0004.09,0007.03,0003.67
2023-12-16 18:55:00,SystemResetWarning,0831.2,5.00,000.00,023.4,022.9,000.0,031.4,024.9,12.8,0000.0,0004.11,0007.34,0003.68
2023-12-16 18:56:00,SystemResetWarning,0831.2,5.00,000.00,023.4,022.9,000.0,031.4,024.9,12.6,0000.0,0004.12,0007.33,0003.70
2023-12-16 18:57:00,SystemResetWarning,0831.2,5.01,000.00,023.5,022.9,000.0,031.4,024.9,12.7,0000.0,0004.16,0007.48,0003.73
2023-12-16 18:58:00,SystemResetWarning,0831.1,5.00,000.00,023.5,023.0,000.0,031.4,024.9,12.5,0000.0,0004.20,0007.66,0003.75
2023-12-16 18:59:00,SystemResetWarning,0831.2,5.00,000.00,023.5,023.0,000.0,031.5,024.9,12.8,0000.0,0004.22,0008.12,0003.77
